Weather History for Moses Lake, WA

Change the Weather History Date:

Saturday, April 28, 2012

  Actual Average Record
Temperature  
Mean Temperature 53 °F 53 °F  
Max Temperature 66 °F 68 °F 82 °F (1980)
Min Temperature 40 °F 39 °F 30 °F (2005)
Degree Days  
Heating Degree Days 12 12  
Month to date heating degree days 386 422  
Since 1 July heating degree days 5527 5594  
Cooling Degree Days 0 0  
Month to date cooling degree days 9 0  
Year to date cooling degree days 9 0  
Growing Degree Days 3 (Base 50)    
Moisture  
Dew Point 34 °F    
Average Humidity 50    
Maximum Humidity 70    
Minimum Humidity 30    
Precipitation  
Precipitation 0.00 in 0.02 in 0.14 in (2001)
Month to date precipitation 0.80 0.66  
Year to date precipitation 2.73 3.38  
Sea Level Pressure  
Sea Level Pressure 30.17 in    
Wind  
Wind Speed 6 mph (SW)    
Max Wind Speed 14 mph    
Max Gust Speed 20 mph    
Visibility 10 miles    
Events      
T = Trace of Precipitation, MM = Missing Value Source: NWS Daily Summary

Daily Weather History Graph

Daily Weather History Graph

Search for Another Location

Airport:

Trip Planner

Search our weather history database for the weather conditions in past years. The results will help you decide how hot, cold, wet, or windy it might be!

Date:

Astronomy

Apr. 28, 2012 Rise Set
Actual Time 5:45 AM PDT 8:05 PM PDT
Civil Twilight 5:11 AM PDT 8:38 PM PDT
Nautical Twilight 4:29 AM PDT 9:21 PM PDT
Astronomical Twilight 3:41 AM PDT 10:09 PM PDT
Moon 11:28 AM PDT (4/28) 1:35 AM PDT (4/28)
Length of Visible Light 15h 27m
Length of Day
14h 20m
Waxing Crescent, 44% of the Moon is Illuminated
Apr 28
Waxing Crescent
Apr 29
First Quarter
May 5
Full
May 12
Last Quarter
May 20
New

Hourly Weather History & Observations

Time (PDT) Temp. Windchill Dew Point Humidity Pressure Visibility Wind Dir Wind Speed Gust Speed Precip Events Conditions
12:52 AM 46.9 °F - 30.9 °F 54% 30.19 in 10.0 mi West 6.9 mph - N/A   Mostly Cloudy
1:52 AM 46.0 °F 41.9 °F 30.9 °F 56% 30.18 in 10.0 mi WNW 8.1 mph - N/A   Scattered Clouds
2:52 AM 45.0 °F 41.2 °F 30.9 °F 58% 30.19 in 10.0 mi West 6.9 mph - N/A   Clear
3:52 AM 43.0 °F 38.8 °F 30.9 °F 62% 30.19 in 10.0 mi West 6.9 mph - N/A   Clear
4:52 AM 43.0 °F 38.8 °F 32.0 °F 65% 30.19 in 10.0 mi West 6.9 mph - N/A   Clear
5:52 AM 42.1 °F 39.2 °F 33.1 °F 70% 30.19 in 10.0 mi SW 4.6 mph - N/A   Clear
6:52 AM 43.0 °F - 34.0 °F 71% 30.21 in 10.0 mi Calm Calm - N/A   Clear
7:52 AM 48.9 °F - 34.0 °F 56% 30.22 in 10.0 mi WSW 4.6 mph - N/A   Clear
8:52 AM 53.1 °F - 35.1 °F 50% 30.22 in 10.0 mi WSW 4.6 mph - N/A   Clear
9:52 AM 57.0 °F - 28.9 °F 34% 30.22 in 10.0 mi SSW 5.8 mph - N/A   Clear
10:52 AM 57.9 °F - 27.0 °F 31% 30.22 in 10.0 mi Calm Calm - N/A   Scattered Clouds
11:52 AM 61.0 °F - 30.0 °F 31% 30.21 in 10.0 mi South 3.5 mph - N/A   Clear
12:52 PM 62.1 °F - 30.9 °F 31% 30.20 in 10.0 mi Variable 5.8 mph - N/A   Clear
1:52 PM 64.0 °F - 33.1 °F 31% 30.18 in 10.0 mi WSW 6.9 mph - N/A   Clear
2:52 PM 63.0 °F - 34.0 °F 34% 30.16 in 10.0 mi Calm Calm - N/A   Clear
3:52 PM 64.9 °F - 34.0 °F 32% 30.14 in 10.0 mi Calm Calm - N/A   Clear
4:52 PM 64.9 °F - 34.0 °F 32% 30.13 in 10.0 mi South 6.9 mph - N/A   Clear
5:52 PM 64.9 °F - 34.0 °F 32% 30.12 in 10.0 mi South 6.9 mph - N/A   Clear
6:52 PM 64.0 °F - 35.1 °F 34% 30.10 in 10.0 mi SSE 6.9 mph - N/A   Clear
7:52 PM 61.0 °F - 37.9 °F 42% 30.10 in 10.0 mi South 10.4 mph - N/A   Clear
8:52 PM 57.9 °F - 39.0 °F 49% 30.11 in 10.0 mi South 8.1 mph - N/A   Clear
9:52 PM 57.2 °F - 39.2 °F 51% 30.11 in 10.0 mi South 9.2 mph - N/A   Clear
10:52 PM 55.9 °F - 41.0 °F 57% 30.11 in 10.0 mi South 10.4 mph - N/A   Clear
11:52 PM 55.9 °F - 39.9 °F 55% 30.09 in 10.0 mi SSW 11.5 mph - N/A   Clear